Regional Weather Roundup
Issued by NWS

Current Version | Previous Version | Text Only | Print | Product List | Glossary On
Versions: 1 2 3 4 5 6 7 8 9 10 11 12 13 14 15 16 17 18 19 20 21 22 23 24 25 26 27 28 29 30 31 32 33 34 35 36 37 38 39 40 41 42 43 44 45 46 47 48 49 50
000
ASUS42 KFFC 112310
RWRGA
WEATHER ROUNDUP FOR GEORGIA
NATIONAL WEATHER SERVICE PEACHTREE CITY GA
600 PM EST TUE DEC 11 2018

NOTE: "FAIR" INDICATES FEW OR NO CLOUDS BELOW 12,000 FEET WITH NO
SIGNIFICANT WEATHER AND/OR OBSTRUCTIONS TO VISIBILITY.

* = USE WITH CAUTION. THE STATIONS MARKED WITH AN ASTERISK MAY NOT
REPORT WEATHER SUCH AS PRECIPITATION, FOG, OR THUNDER AND ARE NOT
QUALITY CONTROLLED BY NWS.

THE REMARK "TC" DENOTES TEMPERATURE READING IN DEGREES CELSIUS.

GAZ001>058-120000-
NORTH GEORGIA

CITY           SKY/WX    TMP DP  RH WIND       PRES   REMARKS
ATLANTA        FAIR      46  26  45 W7        30.25R
ATHENS         FAIR      48  20  32 W6        30.21S
CHAMBLEE       FAIR      43  23  45 W3        30.24S
PEACHTREE CITY FAIR      41  34  76 CALM      30.27R
ROME           FAIR      43  29  57 SW3       30.27R
WEST ATLANTA   FAIR      43  29  57 W3        30.26R
GAINESVILLE    FAIR      44  23  43 W8        30.23R
CARTERSVILLE   FAIR      38  30  73 CALM      30.28R


CITY           SKY/WX    TMP DP  RH WIND       PRES   REMARKS
DALTON*        FAIR      37  28  70 CALM      30.28S
LAWRENCEVILLE* FAIR      44  24  45 W6        30.23S
MARIETTA       CLEAR     40  24  52 W7        30.25R
KENNESAW*      FAIR      43  27  53 CALM      30.26S
CANTON*        FAIR      45  21  39 W6        30.26R
BLAIRSVILLE*   FAIR      38  23  53 W3        30.22R
$$

GAZ059>098-102>109-120000-
CENTRAL GEORGIA

CITY           SKY/WX    TMP DP  RH WIND       PRES   REMARKS
AUGUSTA-BUSH   FAIR      47  37  68 SW3       30.22S
AUGUSTA-DANIEL FAIR      49  37  63 CALM      30.22S
COLUMBUS       FAIR      51  27  39 N3        30.28S
MACON          FAIR      48  32  53 W5        30.26R
ROBINS AFB     CLEAR     51  30  44 W6        30.26R


CITY           SKY/WX    TMP DP  RH WIND       PRES   REMARKS
LAGRANGE*      FAIR      42  33  68 CALM      30.28S
SYLVANIA*      FAIR      45  40  83 CALM      30.24R
MILLEDGEVILLE* FAIR      43  36  75 CALM      30.24F
$$

GAZ099>101-110>166-120000-
SOUTH GEORGIA

CITY           SKY/WX    TMP DP  RH WIND       PRES   REMARKS
SAVANNAH       FAIR      49  37  63 W5        30.24R
VALDOSTA       FAIR      44  40  85 CALM      30.30R
ALMA           FAIR      49  38  65 W5        30.26S
ST SIMONS      FAIR      51  37  58 W5        30.25R
ALBANY         FAIR      47  37  68 CALM      30.31R
HUNTER AFB     FAIR      47  35  62 W3        30.21R
MOODY AFB      FAIR      47  39  76 W3        30.28R
BRUNSWICK      FAIR      48  37  66 CALM      30.26R


CITY           SKY/WX    TMP DP  RH WIND       PRES   REMARKS
BAINBRIDGE*      N/A     50  36  57 CALM      30.31S
MOULTRIE*      FAIR      43  39  87 CALM      30.30S
VIDALIA*       FAIR      48  37  66 SW3       30.25R
WAYCROSS*      FAIR      48  38  67 NW3       30.27R
$$



USA.gov is the U.S. government's official web portal to all federal, state and local government web resources and services.